Home   Weather   Schärding   Past weeks

Flag for Austria Past Weather in Schärding, Upper Austria, Austria — Yesterday and Last 2 Weeks

Now
29 °F

Chilly.


Feels Like: 29 °F
Forecast: 36 / 39 °F
Wind: No wind

Location: Rohrbach

Current Time: Dec 11, 2016 at 1:19:15 am

Latest Report: Dec 11, 2016 at 12:00 am


Visibility: N/A

Pressure: 30.29 "Hg

Humidity: 91%

Dew Point: 27 °F

Location of SchärdingLocation

Past Weather in Schärding — Graph

°F

Schärding Temperature Yesterday

Maximum temperature yesterday: 46 °F (at 3:00 pm)
Minimum temperature yesterday: 29 °F (at 11:00 pm)
Average temperature yesterday: 38 °F

High & Low Weather Summary for the Past Weeks

 TemperatureHumidityPressure
High46 °F (Dec 10, 3:00 pm)99% (Dec 10, 8:00 am)30.71 "Hg (Dec 10, 8:00 am)
Low17 °F (Dec 7, 4:00 am)49% (Nov 28, 1:00 pm)29.99 "Hg (Nov 27, 2:00 pm)
Average30 °F82%30.37 "Hg
* Reported Nov 26 12:00 am — Dec 11 12:00 am, Schärding, Weather by CustomWeather, © 2016

Note: Actual official high and low records may vary slightly from our data, if they occured in-between our weather recording intervals... More about our weather records

Advertising

Schärding Weather History for the Previous 24 Hours

Scroll right to see more
 ConditionsComfort  
Time TempWeatherWind HumidityBarometerVisibility
12:00 am
Sun, Dec 11
29 °FChilly.No wind91%30.29 "HgN/A
11:00 pm
Sat, Dec 10
29 °FChilly.No wind91%30.31 "HgN/A
10:00 pm31 °FChilly.1 mph90%30.32 "HgN/A
9:00 pm31 °FChilly.No wind87%30.33 "HgN/A
8:00 pm34 °FChilly.No wind79%30.32 "HgN/A
7:00 pm35 °FChilly.No wind76%30.33 "HgN/A
6:00 pmN/APassing clouds.10 mphN/AN/A3 mi
5:00 pm40 °FChilly.1 mph62%30.31 "HgN/A
4:00 pm44 °FQuite cool.1 mph59%30.29 "HgN/A
3:00 pm46 °FCool.1 mph61%30.28 "HgN/A
1:00 pm46 °FCool.1 mph74%30.30 "HgN/A
12:00 pm44 °FQuite cool.1 mph84%30.33 "HgN/A
11:00 am42 °FQuite cool.3 mph91%30.36 "HgN/A
10:00 am40 °FQuite cool.1 mph95%30.38 "HgN/A
9:00 am40 °FQuite cool.2 mph96%30.38 "HgN/A
8:00 am38 °FChilly.1 mph99%30.40 "HgN/A
7:00 am36 °FChilly.No wind98%30.40 "HgN/A
6:00 amN/APassing clouds.15 mphN/AN/A14 mi
1:00 am38 °FChilly.1 mph90%30.47 "HgN/A
Weather by CustomWeather, © 2016

See weather overviewHow to use our weather pages